sat.trackr.live / text

‹ back to catalog

BUFENG 1B

NORAD 44311 · 2019-032B

PAYLOAD ACTIVE UNKNOWN

§ Identity

Operator
Country
PRC
Launch date
2019-06-05
Launch site
YSLA
Launch vehicle
Mass (kg)
RCS (m²)

External: N2YO · Heavens-Above · Gunter

§ Orbital elements

Epoch: 2026-09-10T04:20:34.886112Z

Period
94.17 min
Inclination
44.9699°
Eccentricity
0.0025026
Mean motion
15.29153362 rev/d
Perigee alt
461.2 km
Apogee alt
495.5 km
Semi-major
6,856.5 km
B*
2.7974e-4
RAAN
265.1981°
Arg perigee
99.8894°
Mean anomaly
260.4816°
Rev number
40,075

§ Raw data

BUFENG 1B1 44311U 19032B   26253.18095933  .00007837  00000+0  27974-3 0  99902 44311  44.9699 265.1981 0025026  99.8894 260.4816 15.29153362400750

JSON: /api/v1/satellites/44311 · /tle

For live sub-satellite position, see the globe view (requires WebGL).

§ Visibility from observer

Set your observer location to see the next 7 days of passes ≥ 10°. The values pass through the URL so the page stays shareable.

No JS? Fill the form by hand. The geolocation button needs JavaScript.